Location: Newark
(7.0858°N, 171.3717°E)
Time: 06:14:17
(UTC+00:00)

Courier 1B - Pass Details

Date: 28 November 2020
Orbit: 962 x 1209 km, 28.3° (Epoch: 20 January)

Event Time Altitude Azimuth Distance (km) Brightness Sun altitude
Rises 16:34:16 0° 308° (NW) 4,009 - -27.8°
Reaches altitude 10° 16:37:10 10° 313° (NW) 3,076 - -27.1°
Exits shadow 16:42:00 37° 341° (NNW) 1,771 8.5 -26.0°
Maximum altitude 16:44:32 48° 26° (NNE) 1,514 8.4 -25.4°
Drops below altitude 10° 16:52:04 10° 99° (E) 3,140 11.2 -23.6°
Sets 16:55:02 0° 105° (ESE) 4,098 12.2 -22.9°
